星链-37916(STARLINK-37916)

导读

STARLINK-37916(NORAD编号69565)是美国SpaceX公司星链低轨通信星座的成员卫星,2024年下半年随猎鹰9号火箭发射入轨,隶属于星链第二代组网序列。卫星运行于500-600公里高度的近地轨道,搭载激光星间链路与相控阵通信载荷,主要为全球用户提供低延迟、高速率的星链宽带互联网服务,支持偏远地区网络覆盖、应急通信等场景。目前该卫星在轨运行状态正常,参与星链全球通信组网任务。

基本信息
目录编号:
69565
目录名称:
STARLINK-37916
国际标识:
2026-135V
轨道中心:
EARTH
卫星名称:
星链-37916
卫星全名:
星链-37916(STARLINK-37916)
卫星状态:
在轨 (已飞行81 天)
发射日期:
2026-06-15 UTC
国别 :
美国 (US)
星等 :
--
轨道信息
数据来源 国际轨道数据 AOE轨道数据
星历时间 2026-09-04T09:20:27+0800
11小时前
查看轨道信息
2026-08-31T23:00:00+0800
3天前
查看轨道信息
半长轴 6843.679km 6843.736km
偏心率 0.0001504 0.0001068
轨道倾角 97.284° 97.284°
近地点辐角 89.147° 95.595°
升交点赤经 275.030° 271.651°
平近点角 270.995° 57.141°
近地点 464.512km 464.868km
远地点 466.572km 466.33km
周期 93.906分钟 93.907分钟
每日圈数 15.334456 15.334264
详细信息
固有亮度:
5
最大亮度:
2.5
卫星平台:
Starlink V1.0
覆盖范围:
全球
运营商:
太空探索技术公司
运营商所在国:
美国
制造商(研发单位):
太空探索技术公司
制造商所在国:
美国
使用方式:
暂无
卫星简介
Starlink 计划是 SpaceX 推出的全球卫星互联网项目,通过发射低轨道卫星,为全球尤其是偏远地区提供高速、低延迟的互联网服务。自 2019 年起,Starlink 已部署数千颗卫星,旨在缩小全球数字鸿沟,推动互联网普及。该项目还为军事、航空等行业提供通信支持,带来广泛经济效益。
2D轨道图
3D轨道图
轨道高度分析图
轨道倾角分析图
轨道综合分析图
查看轨道综合分析图
交会数据列表
事件ID 空间交会对象 最接近时刻(TCA) 交会距离 交会风险概率(CRP) 交会风险指数(CRI) 操作
CDM_260905-145104-778006-956521
2026-09-05T
14:51:30+0000
2.888 km
极远距离
1.398969E-6 低风险 0.38
CDM_260903-061804-604306-956521
2026-09-03T
06:18:48+0000
2.996 km
极远距离
1.205646E-6 低风险 0.37
CDM_260904-213805-286106-956521
2026-09-04T
21:38:54+0000
2.727 km
极远距离
8.97451E-7 极低风险 0.34